Location: Unspecified
(50.7822°N, 1.1356°W)
Time: 07:44:54
(UTC+01:00)

Cosmos 2058 - Visible Passes

Search period start: 23 June 2018 00:00
Search period end: 03 July 2018 00:00
Orbit: 562 x 585 km, 82.5° (Epoch: 22 June)

Date Brightness Start Highest point End Pass type
(mag) Time Alt. Az. Time Alt. Az. Time Alt. Az.
23 Jun 2.9 00:26:19 25° SSW 00:28:42 78° WNW 00:32:51 10° N visible
23 Jun 5.6 02:05:42 10° WNW 02:06:23 10° WNW 02:07:05 10° NW visible
23 Jun 4.9 22:53:06 10° ESE 22:55:25 15° E 22:57:50 10° NE visible
24 Jun 3.2 00:29:17 22° SSW 00:31:52 60° WNW 00:35:58 10° N visible
24 Jun 4.6 22:56:03 12° SE 22:58:27 19° E 23:01:24 10° NE visible
25 Jun 3.7 00:32:15 18° SW 00:35:03 47° WNW 00:39:04 10° N visible
25 Jun 4.3 22:59:00 14° SE 23:01:31 24° E 23:04:50 10° NE visible
26 Jun 4.1 00:35:12 15° SW 00:38:16 36° WNW 00:42:07 10° N visible
26 Jun 4.0 23:01:55 16° SE 23:04:35 30° E 23:08:12 10° NNE visible
27 Jun 4.5 00:38:07 11° SW 00:41:30 29° WNW 00:45:08 10° N visible
27 Jun 3.6 23:04:49 16° SSE 23:07:40 38° E 23:11:31 10° NNE visible
28 Jun 4.9 00:41:23 10° WSW 00:44:44 23° WNW 00:48:06 10° NNW visible
28 Jun 3.2 23:07:42 16° SSE 23:10:46 49° E 23:14:47 10° NNE visible
29 Jun 5.2 00:45:01 10° WSW 00:48:00 19° WNW 00:51:00 10° NNW visible
29 Jun 2.9 23:10:34 15° S 23:13:53 65° E 23:18:00 10° NNE visible
30 Jun 5.5 00:48:48 10° W 00:51:17 15° WNW 00:53:47 10° NNW visible
30 Jun 2.8 23:13:23 13° S 23:17:02 84° E 23:21:10 10° NNE visible
01 Jul 5.6 00:52:47 10° W 00:54:36 12° WNW 00:56:24 10° NW visible
01 Jul 3.0 23:16:12 11° SSW 23:20:11 76° W 23:24:19 10° N visible
02 Jul 3.4 23:19:18 10° SSW 23:23:22 58° WNW 23:27:26 10° N visible
